Content
SEND FEEDBACK

Daily
Averages
Monthly
Summary
United States of America

HILLSIDE, NEW JERSEY


Home > North America > United States > New Jersey
Elevation: 40 feet     Latitude: 40 40N     Longitude: 074 14W

WEATHER
 
SELECT A DAY
Number of Records: 189,593;   Date Range: 1/1/95 - 7/26/14
 
SHARE

PRINT THIS DATA

[ ← Previous Day ]
WEATHER ALMANAC - APRIL 10, 2014
[ Next Day → ]
[ °C ]   °F
Weather ElementAverageHighLow
Temperature53.4 °F62.6 °F (1:54 pm)39.9 °F (5:51 am)
Dewpoint26.3 °F37 °F (7:51 pm)14 °F (2:51 am)
Humidity35.8 %47 % (6:51 am)25 % (10:51 am)
Barometer30.11 in30.22 in (9:51 am)30.04 in (11:51 pm)
Wind Speed9.4 mph16.1 mph (2:51 pm)
Wind Gust24.2 mph (11:51 am)
Weather ElementAverage
Visibility10 mi
Wind DirectionSSE (151.6 °)

Weather ElementTotal
Precipitation---
Heating Degree Days13.8 (Base 65)
Growing Degree Days1.3 (Base 50)
Averaged from 25 records on April 10, 2014
WEATHER CONDITIONS BREAKOUT
WIND DIRECTION BREAKOUT
WEATHER BY HOUR - APRIL 10, 2014
[ °C ]   °F
Local TimeTemperatureDewpointHumidityBarometerVisibilityWind DirectionWind SpeedGust SpeedPrecipitationEventsConditions
1:51 AM41.0 °F17.1 °F38 %30.06 in10.0 miNorth (10°)8.1 mphClear
2:51 AM44.1 °F14.0 °F30 %30.09 in10.0 miCalmClear
3:51 AM42.1 °F17.1 °F37 %30.10 in10.0 miWest (280°)4.6 mphClear
4:51 AM41.0 °F18.0 °F40 %30.12 in10.0 miWSW (240°)4.6 mphClear
5:51 AM39.9 °F19.9 °F45 %30.14 in10.0 miCalmClear
6:51 AM41.0 °F21.9 °F47 %30.17 in10.0 miWSW (240°)5.8 mphClear
7:51 AM45.0 °F24.1 °F44 %30.20 in10.0 miWSW (240°)8.1 mphClear
8:51 AM48.9 °F21.9 °F35 %30.21 in10.0 miSSE (160°)5.8 mphClear
9:51 AM52.0 °F19.0 °F27 %30.22 in10.0 miSW (220°)10.4 mphClear
10:51 AM55.0 °F19.9 °F25 %30.22 in10.0 miSouth (180°)12.7 mph19.6 mphClear
11:51 AM59.0 °F24.1 °F26 %30.19 in10.0 miSouth (190°)9.2 mph24.2 mphPartly Cloudy
12:51 PM61.0 °F26.1 °F26 %30.16 in10.0 miVariable6.9 mphPartly Cloudy
1:51 PM62.1 °F28.0 °F28 %30.13 in10.0 miVariable4.6 mph17.3 mphPartly Cloudy
1:54 PM62.6 °F28.4 °F27 %30.13 in10.0 miSouth (180°)11.5 mph23.0 mphPartly Cloudy
2:51 PM60.1 °F28.0 °F30 %30.11 in10.0 miSSE (150°)16.1 mph20.7 mphPartly Cloudy
3:51 PM59.0 °F28.9 °F32 %30.09 in10.0 miSSE (150°)16.1 mph24.2 mphPartly Cloudy
4:51 PM60.1 °F30.0 °F32 %30.06 in10.0 miSSE (150°)13.8 mph21.9 mphScattered Clouds
5:51 PM60.1 °F35.1 °F39 %30.05 in10.0 miSSE (150°)10.4 mph20.7 mphScattered Clouds
5:58 PM60.8 °F35.6 °F39 %30.05 in10.0 miSSE (150°)11.5 mphMostly Cloudy
6:51 PM59.0 °F36.0 °F42 %30.05 in10.0 miSSE (160°)11.5 mph18.4 mphMostly Cloudy
7:51 PM57.9 °F37.0 °F46 %30.05 in10.0 miSouth (170°)12.7 mphMostly Cloudy
8:51 PM57.0 °F32.0 °F39 %30.06 in10.0 miSouth (190°)16.1 mphMostly Cloudy
9:51 PM55.0 °F30.9 °F40 %30.06 in10.0 miSouth (190°)10.4 mphMostly Cloudy
10:51 PM55.4 °F32.0 °F41 %30.05 in10.0 miSouth (190°)11.5 mphMostly Cloudy
11:51 PM55.9 °F32.0 °F40 %30.04 in10.0 miSSW (200°)12.7 mphOvercast
Hourly data recorded from KEWR, located miles away from Hillside, New Jersey







STORIES FROM OUR PARTNERS